Wind_Speed
22 22 24 28 31 32 34 35 35 33 32 31 31 31 32 32 35 39 41 43 44 45 46 47 49 49 48 47 47 46 45 44 43 41 40 40 39 38 37 35 35 36 35 35
23 23 24 25 28 31 34 34 33 33 32 31 32 32 32 34 35 38 40 41 43 44 44 44 46 48 47 46 45 46 46 44 43 42 41 40 39 38 38 37 36 35 35 35
23 24 25 24 25 28 33 34 34 34 32 34 34 33 34 34 36 38 40 41 42 44 45 44 45 46 46 46 45 45 44 44 44 42 41 40 39 39 39 38 37 36 35 34
23 24 25 23 24 26 31 34 35 35 34 35 34 35 36 36 37 39 40 41 42 44 45 46 46 46 46 46 45 45 44 43 43 42 41 40 40 40 39 38 37 36 35 34
23 24 24 24 25 26 29 32 35 36 35 36 36 37 38 37 38 39 40 41 42 44 45 46 47 47 47 46 46 45 44 44 43 42 41 40 39 38 38 38 37 36 35 33
24 24 23 21 24 26 28 31 33 36 36 37 37 38 39 39 39 39 40 42 43 45 45 46 46 47 47 47 46 45 44 43 43 42 41 39 38 37 36 36 36 34 33 32
26 25 23 21 23 26 28 29 31 33 36 38 38 39 39 40 40 40 40 41 43 45 46 46 46 47 49 48 47 45 44 43 42 41 40 38 37 37 36 35 33 32 30 30
26 27 24 21 24 27 27 29 31 32 35 37 38 39 39 41 42 41 41 41 42 44 45 46 46 47 47 48 47 46 44 42 41 40 39 38 37 37 35 33 31 30 29 29
26 25 24 24 26 27 29 29 31 32 34 36 36 37 39 41 42 42 42 43 42 43 45 45 45 46 46 45 45 44 43 41 40 39 38 37 36 34 32 31 30 29 29 28
28 25 25 26 27 28 30 31 32 32 33 36 36 37 38 40 42 43 44 44 43 43 45 45 45 45 46 45 44 43 42 41 39 38 37 35 33 32 30 29 29 29 28 27
29 27 27 28 29 29 30 32 33 34 33 34 36 37 38 40 41 42 43 43 43 43 44 44 44 45 46 45 44 43 42 41 39 37 35 34 32 31 29 29 29 28 27 26
29 28 30 30 30 30 31 33 34 34 34 34 35 37 39 40 41 42 42 41 41 42 42 44 44 45 45 45 43 42 41 40 38 36 34 33 32 31 30 30 29 28 27 26
30 29 29 28 29 30 31 32 34 34 33 34 35 37 38 40 42 41 41 41 40 41 43 44 44 45 46 45 44 43 41 39 38 36 35 34 32 31 30 29 29 27 26 26
29 28 26 25 26 28 30 31 33 33 32 33 34 36 37 39 41 41 42 42 42 42 43 44 44 44 45 46 45 43 41 40 38 36 34 34 33 32 30 29 28 27 27 26
27 27 25 24 24 25 28 30 31 32 32 33 34 36 36 38 39 40 42 43 43 43 43 43 43 43 45 46 44 42 41 40 38 36 35 34 33 31 30 30 29 27 26 26
26 27 26 24 23 24 27 29 31 31 32 32 33 35 37 38 39 41 42 42 43 43 43 43 43 42 43 44 42 41 40 39 37 36 35 34 33 32 31 30 28 27 27 26
25 26 25 26 25 25 25 27 30 30 31 32 33 34 36 38 39 39 41 42 43 43 43 43 42 42 43 43 42 41 40 39 37 35 34 33 32 32 31 29 28 28 27 26
24 25 25 25 25 25 25 25 27 29 30 32 33 33 34 36 37 38 39 41 43 44 44 44 44 44 43 42 41 40 39 38 36 34 33 32 32 32 31 29 28 28 26 25
25 26 26 26 26 25 25 25 25 26 29 30 32 32 33 34 36 38 38 40 42 43 43 44 45 44 43 42 40 39 38 37 36 34 33 32 31 31 30 29 29 27 26 25
26 26 26 26 26 27 26 26 26 26 27 29 30 32 33 34 35 38 39 39 41 42 43 44 45 44 43 42 39 39 38 37 36 34 33 32 31 30 30 29 28 26 25 25
27 27 27 27 28 28 28 27 27 26 27 30 31 31 32 34 35 37 39 39 40 42 43 45 45 44 43 42 39 37 37 36 36 34 34 33 32 31 29 28 27 26 26 26
29 29 29 29 29 28 28 28 28 28 28 30 32 32 32 33 34 36 38 38 39 40 41 43 44 43 42 41 39 38 37 36 36 35 33 33 32 31 29 27 27 26 26 25
29 30 30 29 29 29 29 29 29 29 29 30 32 33 33 33 34 35 36 38 39 40 41 41 42 42 41 40 39 38 37 36 35 33 32 31 31 29 28 27 26 25 25 25
27 27 28 28 29 30 29 29 29 29 29 30 31 33 33 33 34 34 35 37 38 39 39 40 41 41 40 39 38 37 36 35 34 32 31 30 29 28 27 26 25 25 25 25
25 24 25 27 27 27 28 28 29 29 29 29 31 32 32 33 34 34 35 36 36 37 38 39 39 40 40 39 39 37 36 35 33 32 31 30 28 28 27 25 25 25 25 24
22 22 22 23 24 25 26 27 27 28 29 29 31 32 32 33 34 35 35 35 35 35 36 37 37 37 37 37 38 37 36 35 33 31 30 29 28 27 26 26 25 25 24 24
20 20 20 21 21 23 24 25 27 27 28 29 31 32 33 33 33 34 35 35 35 34 35 36 36 35 35 35 35 35 34 33 32 30 29 28 26 26 26 25 24 24 23 23
Wind_Direction
255 249 245 240 236 234 234 233 232 230 230 226 225 227 226 221 219 217 216 217 218 219 220 220 220 221 222 222 223 225 227 229 231 232 235 238 241 244 246 248 252 255 258 262
253 251 250 244 236 234 232 231 231 230 228 226 226 224 222 220 218 217 216 216 217 218 218 219 219 219 221 223 224 225 227 229 231 233 235 237 240 243 245 248 251 254 257 260
257 252 250 247 238 235 231 230 231 230 228 226 225 225 221 219 217 217 216 216 217 217 217 217 218 219 220 222 225 227 227 229 231 233 235 236 238 242 245 248 250 253 255 258
261 255 252 248 241 236 231 229 231 230 228 227 226 225 221 219 217 217 218 216 216 216 216 217 218 218 220 222 224 226 227 228 229 231 234 237 239 241 244 246 248 251 254 258
265 262 254 248 243 239 234 231 231 231 229 228 226 224 220 219 217 216 214 214 214 215 215 216 217 218 220 221 224 226 227 228 229 231 234 237 239 242 243 245 247 249 253 256
267 263 259 251 244 240 238 236 232 232 230 228 226 224 222 220 219 217 214 214 215 216 216 216 216 217 218 220 223 225 227 228 230 231 232 234 238 240 242 244 246 249 251 256
265 264 262 254 246 240 241 237 233 230 229 228 226 225 223 221 219 218 215 213 214 214 214 215 215 216 217 219 221 223 225 227 229 229 231 233 235 238 240 243 246 249 252 255
264 262 262 253 245 240 241 236 234 231 228 227 226 224 225 223 222 220 217 214 213 213 213 213 215 216 216 218 219 221 222 224 226 229 230 232 234 236 239 241 244 247 251 255
263 262 259 252 247 242 239 237 235 232 229 227 224 223 224 224 223 220 216 214 214 213 212 212 213 214 214 215 216 218 221 222 224 226 229 231 233 236 238 241 244 247 251 254
264 261 256 250 247 242 238 237 235 233 232 228 224 222 223 224 222 220 219 216 215 214 213 213 212 212 212 213 215 218 220 222 223 226 228 230 232 234 237 240 243 247 250 254
264 259 254 248 247 244 239 235 234 235 234 230 226 222 220 221 220 219 218 218 217 215 213 214 213 211 211 213 216 219 221 223 224 225 225 227 229 231 235 239 243 246 249 253
263 258 254 250 247 244 241 237 235 235 234 232 228 223 220 218 218 217 216 218 218 216 215 215 214 213 212 214 216 218 220 221 223 223 225 228 230 232 236 240 243 247 250 255
263 260 257 253 249 247 244 239 236 236 235 231 228 225 222 219 217 217 217 217 216 216 215 214 214 213 213 215 216 217 219 221 222 224 226 228 231 234 237 240 243 246 251 256
260 257 255 253 251 246 244 239 236 235 234 232 228 225 223 221 220 219 218 218 217 214 213 214 213 212 214 215 217 218 219 220 222 225 226 228 231 234 236 239 242 246 250 256
258 256 253 250 250 247 243 239 237 236 235 233 229 225 222 220 220 220 218 217 217 215 212 212 212 213 213 214 216 217 219 220 223 224 226 227 230 233 236 238 242 246 250 256
259 257 254 251 249 246 242 238 237 235 234 233 229 226 222 220 219 219 217 216 216 214 213 212 211 212 214 213 214 216 218 221 223 224 225 227 230 234 237 239 242 245 251 257
256 254 253 250 248 246 243 240 236 235 235 233 230 226 222 220 219 219 218 216 215 214 214 213 212 212 213 214 215 215 217 220 222 223 225 227 231 233 235 237 241 245 251 256
257 253 253 251 249 246 243 241 237 235 234 232 229 225 221 218 218 219 217 215 214 213 213 213 212 212 212 214 215 216 216 219 221 224 226 229 231 232 233 236 240 245 250 255
258 255 254 252 248 245 242 240 238 235 232 229 226 224 220 218 218 217 216 215 215 213 213 213 212 211 211 213 215 216 217 219 220 223 226 229 231 232 233 236 240 244 250 256
257 256 253 249 246 243 240 238 238 236 230 226 224 222 220 218 216 216 216 216 214 213 213 212 211 211 212 213 214 215 217 219 220 223 225 229 232 233 234 237 240 245 251 257
257 255 252 248 246 244 239 237 236 234 229 226 224 221 220 218 217 217 217 215 213 212 212 211 210 212 213 214 214 214 216 218 220 222 225 229 231 233 235 237 241 245 251 258
259 256 253 250 246 243 238 237 235 232 230 228 225 222 220 218 217 216 215 213 211 211 211 209 209 211 212 213 213 214 216 218 220 223 226 228 230 232 235 238 242 247 252 258
262 258 253 248 244 241 238 235 233 231 230 228 225 221 219 218 216 213 212 212 211 210 210 209 210 210 210 211 212 215 217 219 221 222 226 227 229 232 235 238 243 248 253 259
262 259 254 248 243 239 236 233 232 230 227 225 223 220 217 215 213 211 210 209 209 208 207 207 208 208 208 211 213 215 216 217 218 221 224 226 228 231 234 237 243 249 254 258
262 259 253 246 240 236 232 230 231 230 225 222 219 216 214 211 209 208 208 206 205 203 204 206 207 207 208 210 212 213 214 215 218 220 223 227 230 232 233 238 243 249 254 258
258 253 248 241 236 232 229 228 226 224 221 218 214 211 210 208 206 205 204 202 201 201 202 204 204 204 204 207 209 210 212 215 217 220 223 227 230 231 234 239 244 248 253 258
252 246 241 236 233 231 228 224 220 217 215 211 207 206 205 203 202 201 200 199 199 199 199 199 199 199 201 204 206 208 210 213 217 219 222 224 227 231 235 239 243 248 254 260
Height
5505 5506 5507 5509 5512 5515 5517 5521 5525 5531 5536 5542 5546 5550 5555 5560 5565 5573 5580 5588 5595 5602 5610 5618 5625 5633 5640 5647 5653 5660 5666 5672 5678 5683 5688 5692 5696 5699 5702 5704 5706 5708 5709 5709
5499 5500 5500 5502 5505 5507 5510 5515 5518 5522 5528 5534 5538 5542 5547 5552 5558 5565 5572 5579 5586 5594 5601 5609 5616 5624 5631 5638 5644 5650 5657 5663 5668 5673 5678 5683 5687 5690 5693 5695 5697 5699 5700 5701
5493 5493 5493 5496 5499 5501 5504 5508 5511 5515 5522 5525 5529 5534 5539 5544 5551 5557 5564 5571 5578 5585 5592 5600 5607 5615 5622 5629 5635 5641 5647 5653 5659 5664 5669 5673 5677 5680 5684 5686 5689 5690 5692 5692
5486 5488 5488 5493 5493 5494 5497 5501 5504 5508 5512 5516 5520 5525 5531 5536 5542 5549 5555 5562 5569 5576 5583 5590 5598 5605 5612 5619 5625 5632 5638 5644 5649 5655 5660 5664 5668 5671 5674 5677 5679 5681 5683 5684
5479 5479 5481 5485 5486 5487 5489 5493 5495 5499 5503 5507 5512 5517 5523 5528 5534 5540 5547 5553 5560 5567 5574 5581 5588 5595 5603 5610 5616 5623 5629 5635 5640 5645 5650 5655 5658 5662 5665 5668 5670 5672 5674 5675
5473 5472 5473 5479 5480 5480 5482 5485 5488 5491 5495 5499 5503 5509 5515 5519 5525 5531 5537 5544 5551 5558 5565 5572 5579 5586 5593 5601 5607 5614 5620 5626 5631 5636 5641 5646 5649 5653 5656 5659 5662 5663 5665 5667
5465 5464 5466 5471 5471 5472 5475 5478 5479 5482 5486 5490 5494 5500 5506 5511 5517 5523 5528 5535 5542 5549 5556 5563 5569 5577 5584 5592 5599 5605 5611 5616 5622 5627 5632 5636 5640 5644 5647 5650 5653 5655 5657 5659
5458 5458 5462 5463 5463 5464 5467 5469 5471 5474 5477 5481 5486 5491 5496 5502 5508 5514 5520 5526 5533 5540 5547 5554 5561 5568 5575 5583 5590 5596 5602 5608 5614 5619 5624 5628 5632 5636 5639 5642 5645 5648 5650 5651
5451 5453 5454 5453 5454 5455 5457 5460 5462 5465 5469 5473 5478 5483 5488 5494 5499 5505 5512 5518 5525 5532 5539 5546 5552 5559 5567 5574 5581 5587 5593 5599 5605 5610 5615 5620 5624 5628 5632 5635 5638 5640 5642 5644
5442 5444 5445 5445 5445 5447 5449 5451 5454 5457 5461 5464 5469 5474 5479 5485 5491 5497 5503 5510 5517 5523 5530 5537 5544 5551 5558 5565 5572 5578 5585 5591 5597 5602 5607 5612 5617 5621 5624 5627 5630 5632 5634 5636
5432 5434 5434 5436 5437 5438 5440 5443 5446 5449 5452 5456 5461 5466 5471 5477 5482 5488 5494 5501 5508 5515 5522 5529 5535 5543 5550 5557 5564 5571 5577 5583 5589 5595 5600 5605 5609 5613 5617 5620 5623 5625 5627 5629
5424 5425 5425 5427 5428 5430 5431 5434 5437 5441 5444 5448 5452 5457 5462 5468 5474 5480 5486 5493 5500 5507 5514 5521 5528 5535 5542 5549 5557 5563 5569 5576 5581 5587 5592 5597 5601 5605 5608 5612 5615 5618 5620 5621
5414 5415 5416 5418 5420 5421 5423 5426 5429 5432 5435 5439 5444 5448 5453 5459 5466 5472 5478 5485 5491 5498 5505 5512 5519 5527 5534 5542 5549 5555 5562 5568 5574 5579 5585 5590 5594 5598 5602 5605 5607 5610 5612 5614
5405 5406 5408 5410 5411 5413 5415 5417 5420 5423 5427 5431 5435 5440 5444 5450 5456 5463 5470 5476 5482 5489 5497 5504 5511 5519 5526 5533 5541 5547 5554 5560 5566 5572 5577 5582 5587 5591 5594 5598 5600 5603 5605 5606
5398 5399 5401 5402 5403 5405 5407 5409 5412 5415 5419 5423 5427 5431 5436 5442 5448 5454 5460 5467 5474 5481 5489 5496 5504 5511 5518 5525 5533 5540 5546 5552 5558 5564 5570 5575 5579 5583 5587 5590 5593 5596 5598 5599
5391 5392 5394 5395 5396 5398 5399 5401 5404 5407 5411 5414 5418 5423 5428 5433 5439 5445 5451 5458 5465 5473 5481 5488 5496 5503 5510 5518 5525 5532 5539 5545 5551 5557 5562 5567 5571 5575 5579 5583 5586 5588 5590 5592
5384 5385 5386 5388 5389 5391 5392 5394 5396 5399 5402 5406 5410 5414 5419 5425 5431 5437 5443 5450 5457 5465 5472 5481 5488 5496 5503 5510 5517 5524 5531 5537 5543 5549 5555 5559 5564 5568 5572 5575 5578 5581 5583 5584
5376 5378 5379 5380 5381 5383 5385 5387 5389 5391 5395 5398 5402 5407 5412 5418 5423 5430 5436 5442 5449 5457 5465 5473 5480 5488 5496 5503 5510 5516 5523 5530 5536 5542 5547 5552 5556 5560 5564 5567 5570 5573 5575 5576
5369 5370 5371 5372 5373 5375 5377 5379 5382 5385 5388 5391 5395 5400 5405 5410 5416 5422 5428 5435 5442 5450 5458 5465 5473 5481 5489 5496 5502 5509 5516 5522 5528 5534 5539 5544 5548 5553 5556 5560 5563 5565 5567 5569
5360 5361 5362 5364 5365 5367 5369 5371 5374 5377 5380 5383 5388 5393 5398 5403 5409 5415 5421 5428 5435 5442 5450 5457 5465 5473 5481 5488 5495 5502 5508 5515 5521 5526 5532 5537 5542 5546 5549 5552 5555 5558 5560 5562
5351 5352 5353 5354 5356 5358 5361 5363 5366 5369 5372 5376 5380 5385 5391 5396 5401 5407 5414 5421 5428 5434 5441 5449 5457 5465 5473 5481 5488 5495 5501 5508 5514 5519 5525 5529 5534 5538 5542 5545 5548 5551 5553 5554
5341 5342 5343 5344 5346 5349 5352 5354 5357 5360 5364 5368 5372 5377 5383 5388 5394 5399 5406 5413 5420 5426 5433 5441 5450 5458 5465 5473 5481 5488 5494 5500 5506 5512 5517 5522 5527 5531 5535 5538 5541 5544 5546 5547
5330 5331 5332 5334 5336 5339 5342 5345 5348 5351 5355 5360 5364 5370 5375 5380 5386 5392 5399 5406 5412 5419 5426 5434 5442 5450 5458 5466 5473 5480 5487 5493 5500 5505 5510 5515 5520 5524 5528 5531 5534 5536 5538 5540
5319 5320 5321 5323 5326 5329 5333 5336 5339 5343 5347 5351 5356 5361 5367 5372 5379 5385 5391 5398 5404 5412 5419 5427 5434 5442 5451 5459 5466 5474 5480 5487 5493 5498 5504 5508 5513 5517 5521 5524 5527 5529 5531 5532
5309 5310 5312 5314 5316 5320 5323 5327 5330 5334 5339 5343 5349 5354 5359 5366 5372 5378 5385 5391 5398 5406 5413 5421 5428 5436 5444 5452 5460 5467 5474 5480 5486 5492 5497 5502 5506 5510 5514 5517 5520 5522 5524 5525
5301 5302 5303 5306 5308 5311 5315 5319 5322 5327 5331 5336 5342 5347 5353 5359 5366 5372 5379 5386 5393 5401 5408 5415 5422 5430 5438 5446 5453 5460 5467 5474 5480 5485 5490 5495 5499 5503 5507 5510 5513 5515 5517 5518
5293 5295 5296 5299 5301 5304 5308 5311 5316 5320 5325 5330 5336 5342 5348 5354 5361 5368 5375 5382 5389 5396 5404 5411 5418 5425 5433 5440 5447 5455 5461 5468 5474 5479 5484 5488 5493 5497 5500 5503 5506 5508 5509 5511